Radiation Dose at Monitoring Post of Fukushima Daini Nuclear Power Station
Date,Time,MP-1(microSv/h),MP-2(microSv/h),MP-3(microSv/h),MP-4(microSv/h),MP-5(microSv/h),MP-6(microSv/h),MP-7(microSv/h),Wind Direction,Wind Velocity(m/s),Rain
2023/09/09,00:00,0.137,0.128,0.198,0.194,0.198,0.112,0.080,southeast,14.8,Yes
2023/09/09,00:10,0.138,0.128,0.203,0.197,0.202,0.113,0.081,south-southeast,8.1,Yes
2023/09/09,00:20,0.135,0.125,0.203,0.193,0.201,0.110,0.079,east-northeast,11.5,Yes
2023/09/09,00:30,0.134,0.126,0.198,0.190,0.199,0.111,0.078,south,5.7,Yes
2023/09/09,00:40,0.138,0.126,0.199,0.195,0.199,0.111,0.077,south,5.1,Yes
2023/09/09,00:50,0.137,0.125,0.203,0.195,0.204,0.111,0.078,south,4.3,No
2023/09/09,01:00,0.138,0.126,0.202,0.194,0.204,0.111,0.076,south,4.9,No
2023/09/09,01:10,0.139,0.127,0.200,0.196,0.201,0.111,0.076,south,4.0,Yes
2023/09/09,01:20,0.139,0.124,0.202,0.197,0.201,0.111,0.074,south,4.2,Yes
2023/09/09,01:30,0.138,0.124,0.203,0.195,0.205,0.110,0.075,south,3.8,No
2023/09/09,01:40,0.137,0.125,0.202,0.193,0.203,0.110,0.074,south,3.4,No
2023/09/09,01:50,0.139,0.124,0.200,0.196,0.201,0.110,0.073,south-southwest,3.8,No
2023/09/09,02:00,0.140,0.123,0.202,0.194,0.201,0.111,0.074,south,3.9,No
2023/09/09,02:10,0.137,0.124,0.203,0.194,0.204,0.110,0.073,south,3.4,No
2023/09/09,02:20,0.138,0.124,0.202,0.195,0.202,0.111,0.073,south,3.6,No
2023/09/09,02:30,0.139,0.124,0.201,0.196,0.202,0.111,0.072,south,3.3,No
2023/09/09,02:40,0.140,0.123,0.205,0.194,0.201,0.111,0.074,south-southeast,3.3,No
2023/09/09,02:50,0.138,0.124,0.204,0.194,0.204,0.111,0.073,south-southeast,3.2,No
2023/09/09,03:00,0.138,0.124,0.201,0.194,0.203,0.111,0.073,south,2.8,No
2023/09/09,03:10,0.140,0.124,0.202,0.196,0.200,0.111,0.073,south,2.8,No
2023/09/09,03:20,0.140,0.123,0.206,0.196,0.201,0.112,0.073,south,3.0,Yes
2023/09/09,03:30,0.139,0.124,0.204,0.193,0.204,0.111,0.073,south,3.1,Yes
2023/09/09,03:40,0.139,0.124,0.201,0.194,0.205,0.111,0.073,south-southeast,3.3,Yes
2023/09/09,03:50,0.140,0.123,0.205,0.197,0.202,0.111,0.073,southeast,3.6,Yes
2023/09/09,04:00,0.141,0.123,0.206,0.196,0.202,0.112,0.074,south-southeast,3.2,Yes
2023/09/09,04:10,0.139,0.125,0.204,0.194,0.205,0.113,0.074,south-southeast,4.3,Yes
2023/09/09,04:20,0.139,0.125,0.204,0.197,0.203,0.111,0.072,south-southeast,4.0,No
2023/09/09,04:30,0.141,0.124,0.205,0.196,0.201,0.112,0.074,south-southeast,3.9,No
2023/09/09,04:40,0.140,0.124,0.204,0.195,0.204,0.112,0.074,south-southeast,4.4,No
2023/09/09,04:50,0.138,0.124,0.203,0.194,0.205,0.112,0.073,south-southeast,4.2,No
2023/09/09,05:00,0.140,0.124,0.206,0.196,0.202,0.111,0.072,south-southeast,4.5,No
2023/09/09,05:10,0.140,0.123,0.205,0.195,0.202,0.111,0.073,south-southeast,4.8,No
2023/09/09,05:20,0.140,0.125,0.203,0.194,0.203,0.112,0.073,south-southeast,5.2,No
2023/09/09,05:30,0.139,0.124,0.204,0.196,0.204,0.113,0.072,south,5.0,No
2023/09/09,05:40,0.139,0.124,0.206,0.197,0.201,0.112,0.072,south,5.3,No
2023/09/09,05:50,0.141,0.123,0.206,0.195,0.200,0.112,0.073,south,5.4,No
2023/09/09,06:00,0.139,0.124,0.204,0.194,0.205,0.112,0.072,south-southeast,5.2,Yes
2023/09/09,06:10,0.139,0.125,0.204,0.195,0.204,0.113,0.072,south,5.6,Yes
2023/09/09,06:20,0.139,0.124,0.207,0.197,0.201,0.111,0.073,south,5.1,Yes
2023/09/09,06:30,0.141,0.124,0.205,0.195,0.201,0.111,0.072,south,5.2,Yes
2023/09/09,06:40,0.139,0.125,0.205,0.194,0.205,0.112,0.073,south,4.7,Yes
2023/09/09,06:50,0.139,0.124,0.205,0.197,0.204,0.113,0.073,south,4.2,Yes
2023/09/09,07:00,0.139,0.124,0.207,0.196,0.202,0.112,0.073,south,4.5,Yes
2023/09/09,07:10,0.142,0.124,0.206,0.195,0.201,0.113,0.073,south,4.2,Yes
2023/09/09,07:20,0.139,0.125,0.205,0.194,0.204,0.113,0.074,south,4.5,Yes
2023/09/09,07:30,0.138,0.124,0.202,0.194,0.202,0.113,0.072,south-southeast,5.8,Yes
2023/09/09,07:40,0.137,0.123,0.201,0.189,0.200,0.110,0.073,-,CALM,Yes
2023/09/09,07:50,0.138,0.124,0.195,0.186,0.197,0.112,0.076,east,4.6,Yes
2023/09/09,08:00,0.136,0.126,0.195,0.186,0.200,0.112,0.075,east-northeast,12.9,Yes
2023/09/09,08:10,0.126,0.124,0.189,0.182,0.196,0.111,0.075,-,CALM,Yes
2023/09/09,08:20,0.120,0.119,0.184,0.181,0.189,0.111,0.077,-,CALM,Yes
2023/09/09,08:30,0.123,0.120,0.181,0.179,0.189,0.101,0.079,-,CALM,Yes
2023/09/09,08:40,0.122,0.120,0.187,0.188,0.195,0.090,0.078,-,CALM,Yes
2023/09/09,08:50,0.126,0.122,0.198,0.193,0.197,0.094,0.079,south,6.5,Yes
2023/09/09,09:00,0.130,0.123,0.198,0.191,0.195,0.099,0.080,south-southwest,1.8,Yes
2023/09/09,09:10,0.135,0.123,0.198,0.192,0.199,0.104,0.080,south,5.5,Yes
2023/09/09,09:20,0.137,0.124,0.202,0.197,0.201,0.109,0.080,south,5.3,Yes
2023/09/09,09:30,0.136,0.122,0.203,0.197,0.201,0.111,0.080,south-southeast,7.3,Yes
2023/09/09,09:40,0.138,0.121,0.201,0.194,0.199,0.111,0.078,south,6.5,Yes
2023/09/09,09:50,0.138,0.122,0.200,0.192,0.201,0.111,0.077,south,4.7,Yes
2023/09/09,10:00,0.138,0.121,0.200,0.194,0.202,0.110,0.076,south,6.4,Yes
2023/09/09,10:10,0.138,0.119,0.202,0.197,0.202,0.112,0.076,south,7.7,Yes
2023/09/09,10:20,0.137,0.119,0.201,0.195,0.201,0.111,0.075,south,7.7,Yes
2023/09/09,10:30,0.136,0.119,0.200,0.193,0.199,0.109,0.074,south-southeast,8.4,Yes
2023/09/09,10:40,0.138,0.119,0.198,0.193,0.199,0.110,0.074,south,6.8,Yes
2023/09/09,10:50,0.138,0.120,0.198,0.192,0.201,0.110,0.073,south,6.0,Yes
2023/09/09,11:00,0.137,0.119,0.201,0.195,0.203,0.110,0.073,south,5.1,Yes
2023/09/09,11:10,0.136,0.119,0.202,0.194,0.202,0.111,0.074,south,5.9,No
2023/09/09,11:20,0.137,0.119,0.202,0.193,0.201,0.110,0.073,south,7.6,No
2023/09/09,11:30,0.136,0.119,0.201,0.192,0.200,0.109,0.072,south,6.9,No
2023/09/09,11:40,0.136,0.118,0.200,0.192,0.200,0.110,0.073,south-southeast,6.8,No
2023/09/09,11:50,0.137,0.119,0.201,0.191,0.199,0.110,0.073,south,9.3,No
2023/09/09,12:00,0.137,0.119,0.202,0.192,0.200,0.110,0.072,south,7.8,No
2023/09/09,12:10,0.137,0.120,0.201,0.192,0.201,0.110,0.072,south,7.5,No
2023/09/09,12:20,0.137,0.119,0.201,0.193,0.199,0.111,0.072,south,7.2,No
2023/09/09,12:30,0.137,0.121,0.201,0.193,0.200,0.110,0.072,south,6.7,No
2023/09/09,12:40,0.138,0.122,0.204,0.194,0.201,0.110,0.072,south,6.6,No
2023/09/09,12:50,0.137,0.122,0.204,0.194,0.201,0.111,0.073,south-southeast,6.7,No
2023/09/09,13:00,0.138,0.121,0.203,0.194,0.202,0.111,0.073,south-southeast,5.9,No
2023/09/09,13:10,0.138,0.122,0.205,0.195,0.202,0.112,0.072,south-southeast,7.1,No
2023/09/09,13:20,0.139,0.122,0.204,0.194,0.202,0.112,0.072,south-southeast,6.5,No
2023/09/09,13:30,0.138,0.123,0.204,0.195,0.202,0.111,0.072,south-southeast,6.8,No
2023/09/09,13:40,0.138,0.123,0.206,0.195,0.202,0.112,0.073,south-southeast,6.6,No
2023/09/09,13:50,0.139,0.123,0.206,0.195,0.203,0.112,0.072,south-southeast,6.5,No
2023/09/09,14:00,0.140,0.123,0.205,0.196,0.203,0.112,0.072,south-southeast,6.6,No
2023/09/09,14:10,0.139,0.123,0.205,0.195,0.202,0.112,0.072,south-southeast,7.3,No
2023/09/09,14:20,0.139,0.123,0.205,0.195,0.202,0.112,0.072,south-southeast,6.9,No
2023/09/09,14:30,0.139,0.122,0.205,0.196,0.203,0.112,0.072,south-southeast,6.8,No
2023/09/09,14:40,0.139,0.123,0.206,0.196,0.202,0.113,0.072,south-southeast,7.6,No
2023/09/09,14:50,0.140,0.122,0.205,0.195,0.202,0.113,0.073,south-southeast,8.1,No
2023/09/09,15:00,0.139,0.122,0.205,0.196,0.202,0.112,0.072,south-southeast,6.8,No
2023/09/09,15:10,0.139,0.123,0.206,0.195,0.202,0.112,0.072,south-southeast,7.5,No
2023/09/09,15:20,0.139,0.123,0.206,0.195,0.202,0.112,0.072,south-southeast,8.2,No
2023/09/09,15:30,0.139,0.123,0.205,0.196,0.202,0.112,0.072,south-southeast,7.9,No
2023/09/09,15:40,0.139,0.123,0.205,0.195,0.202,0.113,0.072,south,8.5,No
2023/09/09,15:50,0.139,0.123,0.205,0.194,0.202,0.112,0.072,south,7.8,No
2023/09/09,16:00,0.139,0.123,0.205,0.194,0.203,0.112,0.072,south,8.3,No
2023/09/09,16:10,0.139,0.123,0.205,0.196,0.202,0.113,0.072,south,7.8,No
2023/09/09,16:20,0.140,0.123,0.208,0.199,0.202,0.113,0.073,south,7.2,No
2023/09/09,16:30,0.138,0.123,0.208,0.198,0.203,0.113,0.073,south,7.1,No
2023/09/09,16:40,0.138,0.124,0.209,0.196,0.203,0.113,0.072,south,6.7,No
2023/09/09,16:50,0.141,0.124,0.206,0.195,0.201,0.114,0.072,south,7.0,No
2023/09/09,17:00,0.141,0.124,0.206,0.195,0.202,0.112,0.071,south-southeast,7.3,No
2023/09/09,17:10,0.140,0.123,0.206,0.196,0.202,0.112,0.072,south,6.8,No
2023/09/09,17:20,0.139,0.123,0.209,0.199,0.202,0.113,0.073,south-southeast,6.1,No
2023/09/09,17:30,0.139,0.123,0.209,0.198,0.204,0.114,0.073,south,6.5,No
2023/09/09,17:40,0.140,0.124,0.208,0.197,0.206,0.114,0.073,south,6.3,No
2023/09/09,17:50,0.141,0.125,0.206,0.195,0.205,0.114,0.072,south,6.8,No
2023/09/09,18:00,0.142,0.125,0.208,0.196,0.204,0.113,0.073,south,6.2,No
2023/09/09,18:10,0.141,0.124,0.210,0.198,0.202,0.113,0.073,south,5.4,No
2023/09/09,18:20,0.139,0.123,0.208,0.197,0.206,0.112,0.074,south,5.6,No
2023/09/09,18:30,0.141,0.124,0.207,0.197,0.205,0.114,0.073,south,6.0,Yes
2023/09/09,18:40,0.142,0.124,0.206,0.196,0.204,0.113,0.073,south,6.8,No
2023/09/09,18:50,0.140,0.124,0.209,0.198,0.202,0.114,0.074,south,6.5,No
2023/09/09,19:00,0.140,0.124,0.210,0.199,0.203,0.113,0.073,south,6.9,No
2023/09/09,19:10,0.140,0.125,0.208,0.198,0.206,0.113,0.073,south,6.5,No
2023/09/09,19:20,0.143,0.124,0.206,0.196,0.204,0.114,0.073,south,5.5,No
2023/09/09,19:30,0.141,0.123,0.209,0.197,0.202,0.114,0.074,south,5.5,No
2023/09/09,19:40,0.141,0.124,0.209,0.199,0.202,0.114,0.073,south,5.6,No
2023/09/09,19:50,0.140,0.126,0.208,0.197,0.207,0.114,0.074,south-southwest,6.0,No
2023/09/09,20:00,0.142,0.125,0.206,0.195,0.205,0.113,0.073,south,5.6,No
2023/09/09,20:10,0.142,0.124,0.209,0.198,0.204,0.113,0.073,south,5.2,No
2023/09/09,20:20,0.141,0.124,0.209,0.199,0.203,0.114,0.074,south-southwest,6.8,No
2023/09/09,20:30,0.141,0.125,0.207,0.197,0.205,0.114,0.073,south,6.3,No
2023/09/09,20:40,0.142,0.124,0.208,0.196,0.205,0.113,0.073,south,6.1,No
2023/09/09,20:50,0.142,0.124,0.210,0.197,0.204,0.114,0.073,south,6.2,No
2023/09/09,21:00,0.142,0.124,0.209,0.200,0.203,0.114,0.074,south,5.3,No
2023/09/09,21:10,0.140,0.124,0.207,0.197,0.205,0.114,0.073,south,4.3,No
2023/09/09,21:20,0.143,0.125,0.210,0.196,0.205,0.114,0.073,south,2.5,No
2023/09/09,21:30,0.143,0.123,0.210,0.197,0.204,0.113,0.073,south,3.3,No
2023/09/09,21:40,0.141,0.125,0.208,0.199,0.202,0.114,0.074,south,3.9,No
2023/09/09,21:50,0.140,0.124,0.208,0.197,0.204,0.115,0.074,south,3.6,No
2023/09/09,22:00,0.142,0.124,0.209,0.196,0.206,0.115,0.073,south,3.2,Yes
2023/09/09,22:10,0.142,0.124,0.208,0.198,0.204,0.114,0.074,south,4.2,No
2023/09/09,22:20,0.142,0.126,0.208,0.199,0.203,0.115,0.074,south,4.8,No
2023/09/09,22:30,0.141,0.124,0.209,0.198,0.206,0.115,0.074,south-southwest,3.3,No
2023/09/09,22:40,0.143,0.124,0.210,0.196,0.206,0.115,0.073,south-southwest,2.4,No
2023/09/09,22:50,0.141,0.124,0.208,0.200,0.204,0.114,0.073,southwest,2.3,No
2023/09/09,23:00,0.141,0.124,0.207,0.199,0.203,0.114,0.074,south-southwest,1.8,No
2023/09/09,23:10,0.142,0.124,0.210,0.197,0.206,0.115,0.074,south-southwest,2.4,No
2023/09/09,23:20,0.143,0.125,0.208,0.197,0.205,0.114,0.073,south-southwest,3.6,No
2023/09/09,23:30,0.141,0.125,0.207,0.199,0.204,0.114,0.074,south-southwest,3.5,No
2023/09/09,23:40,0.140,0.124,0.211,0.199,0.205,0.115,0.074,south,3.0,No
2023/09/09,23:50,0.143,0.125,0.210,0.197,0.207,0.114,0.073,south,2.2,No
